Time,TemperatureF,DewpointF,PressureIn,WindDirection,WindDirectionDegrees,WindSpeedMPH,WindSpeedGustMPH,Humidity,HourlyPrecipIn,Conditions,Clouds,dailyrainin,SoftwareType,DateUTC
2013-07-13 00:01:00,51.6,46.3,30.22,SSW,209,0.0,0.0,82,0.00,CLR,,0.00,WeatherDisplay:10.37,2013-07-12 14:01:00,
2013-07-13 00:06:00,51.6,46.6,30.21,SSW,207,0.0,0.0,83,0.00,CLR,,0.00,WeatherDisplay:10.37,2013-07-12 14:06:00,
2013-07-13 00:11:00,51.6,46.6,30.21,SSW,194,0.0,0.0,83,0.00,CLR,,0.00,WeatherDisplay:10.37,2013-07-12 14:11:00,
2013-07-13 00:16:00,51.6,46.6,30.20,SSW,192,0.0,0.0,83,0.00,CLR,,0.00,WeatherDisplay:10.37,2013-07-12 14:16:00,
2013-07-13 00:21:00,51.6,46.6,30.21,SSW,199,0.0,0.0,83,0.00,CLR,,0.00,WeatherDisplay:10.37,2013-07-12 14:21:00,
2013-07-13 00:26:00,51.6,46.6,30.21,SSW,201,0.0,0.0,83,0.00,CLR,,0.00,WeatherDisplay:10.37,2013-07-12 14:26:00,
2013-07-13 00:31:00,51.6,46.6,30.20,SSW,204,0.0,0.0,83,0.00,CLR,,0.00,WeatherDisplay:10.37,2013-07-12 14:31:00,
2013-07-13 00:36:00,51.6,46.6,30.20,SSW,205,0.0,0.0,83,0.00,CLR,,0.00,WeatherDisplay:10.37,2013-07-12 14:36:00,
2013-07-13 00:41:00,51.4,46.4,30.20,SSW,203,0.0,0.0,83,0.00,CLR,,0.00,WeatherDisplay:10.37,2013-07-12 14:41:00,
2013-07-13 00:46:00,51.3,46.0,30.21,SSW,193,0.0,0.0,82,0.00,CLR,,0.00,WeatherDisplay:10.37,2013-07-12 14:46:00,
2013-07-13 00:51:00,51.1,45.8,30.20,South,182,0.0,0.0,82,0.00,CLR,,0.00,WeatherDisplay:10.37,2013-07-12 14:51:00,
2013-07-13 00:56:00,51.1,45.8,30.20,SW,225,0.0,0.0,82,0.00,CLR,,0.00,WeatherDisplay:10.37,2013-07-12 14:56:00,
2013-07-13 01:01:00,50.9,45.6,30.21,NNW,327,0.0,0.0,82,0.00,CLR,,0.00,WeatherDisplay:10.37,2013-07-12 15:01:00,
2013-07-13 01:06:00,50.7,45.4,30.21,NNW,335,0.0,0.0,82,0.00,CLR,,0.00,WeatherDisplay:10.37,2013-07-12 15:06:00,
2013-07-13 01:11:00,50.5,45.2,30.21,NNW,347,0.0,0.0,82,0.00,CLR,,0.00,WeatherDisplay:10.37,2013-07-12 15:11:00,
2013-07-13 01:16:00,50.5,45.2,30.22,NNW,336,0.0,0.0,82,0.00,CLR,,0.00,WeatherDisplay:10.37,2013-07-12 15:16:00,
2013-07-13 01:21:00,50.4,45.1,30.21,WSW,243,0.0,0.0,82,0.00,CLR,,0.00,WeatherDisplay:10.37,2013-07-12 15:21:00,
2013-07-13 01:26:00,50.2,44.9,30.21,SSW,201,0.0,0.0,82,0.00,CLR,,0.00,WeatherDisplay:10.37,2013-07-12 15:26:00,
2013-07-13 01:31:00,50.2,44.9,30.22,South,190,0.0,0.0,82,0.00,CLR,,0.00,WeatherDisplay:10.37,2013-07-12 15:31:00,
2013-07-13 01:36:00,50.0,44.7,30.21,SSW,198,0.0,0.0,82,0.00,CLR,,0.00,WeatherDisplay:10.37,2013-07-12 15:36:00,
2013-07-13 01:41:00,49.8,44.5,30.22,West,259,0.0,0.0,82,0.00,CLR,,0.00,WeatherDisplay:10.37,2013-07-12 15:41:00,
2013-07-13 01:46:00,49.8,44.5,30.21,NW,320,0.0,0.0,82,0.00,CLR,,0.00,WeatherDisplay:10.37,2013-07-12 15:46:00,
2013-07-13 01:51:00,49.7,44.4,30.21,NNW,339,0.0,0.0,82,0.00,CLR,,0.00,WeatherDisplay:10.37,2013-07-12 15:51:00,
2013-07-13 01:56:00,49.6,44.4,30.22,North,6,0.0,0.0,82,0.00,CLR,,0.00,WeatherDisplay:10.37,2013-07-12 15:56:00,
2013-07-13 02:01:00,49.6,44.4,30.21,NE,54,0.0,0.0,82,0.00,CLR,,0.00,WeatherDisplay:10.37,2013-07-12 16:01:00,
2013-07-13 02:06:00,49.4,44.1,30.21,ESE,110,0.0,0.0,82,0.00,CLR,,0.00,WeatherDisplay:10.37,2013-07-12 16:06:00,
2013-07-13 02:11:00,49.3,44.0,30.20,SSE,162,0.0,0.0,82,0.00,CLR,,0.00,WeatherDisplay:10.37,2013-07-12 16:11:00,
2013-07-13 02:16:00,49.3,44.0,30.20,SSW,197,0.0,0.0,82,0.00,CLR,,0.00,WeatherDisplay:10.37,2013-07-12 16:16:00,
2013-07-13 02:21:00,49.3,44.0,30.20,SSW,200,0.0,0.0,82,0.00,CLR,,0.00,WeatherDisplay:10.37,2013-07-12 16:21:00,
2013-07-13 02:26:00,49.3,44.3,30.21,SW,216,0.0,0.0,83,0.00,CLR,,0.00,WeatherDisplay:10.37,2013-07-12 16:26:00,
2013-07-13 02:31:00,49.3,44.3,30.21,SSW,213,0.0,0.0,83,0.00,CLR,,0.00,WeatherDisplay:10.37,2013-07-12 16:31:00,
2013-07-13 02:36:00,49.3,44.3,30.20,SSW,198,0.0,0.0,83,0.00,CLR,,0.00,WeatherDisplay:10.37,2013-07-12 16:36:00,
2013-07-13 02:41:00,49.3,44.3,30.20,SSW,212,0.0,0.0,83,0.00,CLR,,0.00,WeatherDisplay:10.37,2013-07-12 16:41:00,
2013-07-13 02:46:00,49.3,44.3,30.20,SW,233,0.0,0.0,83,0.00,CLR,,0.00,WeatherDisplay:10.37,2013-07-12 16:46:00,
2013-07-13 02:51:00,49.3,44.3,30.20,SW,219,0.0,0.0,83,0.00,CLR,,0.00,WeatherDisplay:10.37,2013-07-12 16:51:00,
2013-07-13 03:06:00,49.2,44.2,30.20,WSW,238,0.0,0.0,83,0.00,CLR,,0.00,WeatherDisplay:10.37,2013-07-12 17:06:00,
2013-07-13 03:11:00,49.1,44.2,30.20,SW,229,0.0,0.0,83,0.00,CLR,,0.00,WeatherDisplay:10.37,2013-07-12 17:11:00,
2013-07-13 03:16:00,49.0,44.1,30.20,SW,226,0.0,0.0,83,0.00,CLR,,0.00,WeatherDisplay:10.37,2013-07-12 17:16:00,
2013-07-13 03:21:00,48.9,44.0,30.19,SW,225,0.0,0.0,83,0.00,CLR,,0.00,WeatherDisplay:10.37,2013-07-12 17:21:00,
2013-07-13 03:26:00,48.9,44.0,30.19,SW,225,0.0,0.0,83,0.00,CLR,,0.00,WeatherDisplay:10.37,2013-07-12 17:26:00,
2013-07-13 03:31:00,48.8,43.9,30.19,SW,235,0.0,0.0,83,0.00,CLR,,0.00,WeatherDisplay:10.37,2013-07-12 17:31:00,
2013-07-13 03:36:00,48.7,43.5,30.20,SW,231,0.0,0.0,82,0.00,CLR,,0.00,WeatherDisplay:10.37,2013-07-12 17:36:00,
2013-07-13 03:46:00,48.6,43.3,30.19,NNW,333,0.0,0.0,82,0.00,CLR,,0.00,WeatherDisplay:10.37,2013-07-12 17:46:00,
2013-07-13 03:51:00,48.6,43.3,30.20,North,354,0.0,0.0,82,0.00,CLR,,0.00,WeatherDisplay:10.37,2013-07-12 17:51:00,
2013-07-13 03:56:00,48.3,43.1,30.20,North,3,0.0,0.0,82,0.00,CLR,,0.00,WeatherDisplay:10.37,2013-07-12 17:56:00,
2013-07-13 04:01:00,48.0,42.8,30.20,NNE,16,0.0,0.0,82,0.00,CLR,,0.00,WeatherDisplay:10.37,2013-07-12 18:01:00,
2013-07-13 04:06:00,47.9,42.7,30.20,NNE,18,0.0,0.0,82,0.00,CLR,,0.00,WeatherDisplay:10.37,2013-07-12 18:06:00,
2013-07-13 04:11:00,47.8,42.6,30.21,NNE,17,0.0,0.0,82,0.00,CLR,,0.00,WeatherDisplay:10.37,2013-07-12 18:11:00,
2013-07-13 04:16:00,47.6,42.4,30.20,NNE,17,0.0,0.0,82,0.00,CLR,,0.00,WeatherDisplay:10.37,2013-07-12 18:16:00,
2013-07-13 04:26:00,47.5,42.3,30.21,East,84,0.0,0.0,82,0.00,CLR,,0.00,WeatherDisplay:10.37,2013-07-12 18:26:00,
2013-07-13 04:31:00,47.3,42.1,30.21,East,98,0.0,0.0,82,0.00,CLR,,0.00,WeatherDisplay:10.37,2013-07-12 18:31:00,
2013-07-13 04:41:00,47.1,41.9,30.22,ESE,107,0.0,0.0,82,0.00,CLR,,0.00,WeatherDisplay:10.37,2013-07-12 18:41:00,
2013-07-13 04:46:00,46.9,41.7,30.22,ESE,109,0.0,0.0,82,0.00,CLR,,0.00,WeatherDisplay:10.37,2013-07-12 18:46:00,
2013-07-13 04:51:00,46.9,41.7,30.22,SSE,147,0.0,0.0,82,0.00,CLR,,0.00,WeatherDisplay:10.37,2013-07-12 18:51:00,
2013-07-13 04:56:00,46.9,41.7,30.22,South,173,0.0,0.0,82,0.00,CLR,,0.00,WeatherDisplay:10.37,2013-07-12 18:56:00,
2013-07-13 05:01:00,47.0,41.8,30.22,SSE,163,0.0,0.0,82,0.00,CLR,,0.00,WeatherDisplay:10.37,2013-07-12 19:01:00,
2013-07-13 05:11:00,46.9,41.7,30.23,East,99,0.0,0.0,82,0.00,CLR,,0.00,WeatherDisplay:10.37,2013-07-12 19:11:00,
2013-07-13 05:16:00,46.9,41.7,30.23,ESE,103,0.0,0.0,82,0.00,CLR,,0.00,WeatherDisplay:10.37,2013-07-12 19:16:00,
2013-07-13 05:26:00,46.9,41.7,30.22,SE,127,0.0,0.0,82,0.00,CLR,,0.00,WeatherDisplay:10.37,2013-07-12 19:26:00,
2013-07-13 05:41:00,47.1,42.2,30.23,West,278,0.0,0.0,83,0.00,CLR,,0.00,WeatherDisplay:10.37,2013-07-12 19:41:00,
2013-07-13 05:46:00,47.1,42.2,30.24,West,277,0.0,0.0,83,0.00,CLR,,0.00,WeatherDisplay:10.37,2013-07-12 19:46:00,
2013-07-13 05:51:00,47.1,42.2,30.24,West,273,0.0,0.0,83,0.00,CLR,,0.00,WeatherDisplay:10.37,2013-07-12 19:51:00,
2013-07-13 05:56:00,47.0,42.1,30.24,West,276,0.0,0.0,83,0.00,CLR,,0.00,WeatherDisplay:10.37,2013-07-12 19:56:00,
2013-07-13 06:01:00,46.9,42.0,30.23,WSW,247,0.0,0.0,83,0.00,CLR,,0.00,WeatherDisplay:10.37,2013-07-12 20:01:00,
2013-07-13 06:06:00,46.9,42.0,30.24,SW,218,0.0,0.0,83,0.00,CLR,,0.00,WeatherDisplay:10.37,2013-07-12 20:06:00,
2013-07-13 06:11:00,46.9,42.0,30.24,SW,228,0.0,0.0,83,0.00,CLR,,0.00,WeatherDisplay:10.37,2013-07-12 20:11:00,
2013-07-13 06:16:00,46.9,42.0,30.24,SW,231,0.0,0.0,83,0.00,CLR,,0.00,WeatherDisplay:10.37,2013-07-12 20:16:00,
2013-07-13 06:21:00,46.9,42.0,30.24,SW,233,0.0,0.0,83,0.00,CLR,,0.00,WeatherDisplay:10.37,2013-07-12 20:21:00,
2013-07-13 06:26:00,46.9,42.0,30.24,WSW,240,0.0,0.0,83,0.00,CLR,,0.00,WeatherDisplay:10.37,2013-07-12 20:26:00,
2013-07-13 06:31:00,46.9,42.0,30.25,SW,236,0.0,0.0,83,0.00,CLR,,0.00,WeatherDisplay:10.37,2013-07-12 20:31:00,
2013-07-13 06:36:00,46.9,42.0,30.25,SW,227,0.0,0.0,83,0.00,CLR,,0.00,WeatherDisplay:10.37,2013-07-12 20:36:00,
2013-07-13 06:41:00,46.9,42.0,30.25,SW,225,0.0,0.0,83,0.00,CLR,,0.00,WeatherDisplay:10.37,2013-07-12 20:41:00,
2013-07-13 06:46:00,46.8,41.9,30.25,SW,227,0.0,0.0,83,0.00,CLR,,0.00,WeatherDisplay:10.37,2013-07-12 20:46:00,
2013-07-13 06:51:00,46.7,41.5,30.26,SW,229,0.0,0.0,82,0.00,CLR,,0.00,WeatherDisplay:10.37,2013-07-12 20:51:00,
2013-07-13 06:56:00,46.6,41.4,30.26,SW,236,0.0,0.0,82,0.00,CLR,,0.00,WeatherDisplay:10.37,2013-07-12 20:56:00,
2013-07-13 07:01:00,46.6,41.4,30.26,SW,232,0.0,0.0,82,0.00,CLR,,0.00,WeatherDisplay:10.37,2013-07-12 21:01:00,
2013-07-13 07:06:00,46.4,41.2,30.26,SW,227,0.0,0.0,82,0.00,CLR,,0.00,WeatherDisplay:10.37,2013-07-12 21:06:00,
2013-07-13 07:11:00,46.3,41.1,30.26,SW,227,0.0,0.0,82,0.00,CLR,,0.00,WeatherDisplay:10.37,2013-07-12 21:11:00,
2013-07-13 07:21:00,46.2,41.3,30.26,SW,226,0.0,0.0,83,0.00,CLR,,0.00,WeatherDisplay:10.37,2013-07-12 21:21:00,
2013-07-13 07:31:00,46.6,41.7,30.26,WSW,240,0.0,0.0,83,0.00,CLR,,0.00,WeatherDisplay:10.37,2013-07-12 21:31:00,
2013-07-13 07:36:00,46.7,41.8,30.27,SW,231,0.0,0.0,83,0.00,CLR,,0.00,WeatherDisplay:10.37,2013-07-12 21:36:00,
2013-07-13 07:41:00,46.9,42.0,30.27,SE,128,0.0,0.0,83,0.00,CLR,,0.00,WeatherDisplay:10.37,2013-07-12 21:41:00,
2013-07-13 07:46:00,46.9,42.0,30.27,ENE,68,0.0,0.0,83,0.00,CLR,,0.00,WeatherDisplay:10.37,2013-07-12 21:46:00,
2013-07-13 07:51:00,47.1,42.2,30.27,ENE,66,0.0,0.0,83,0.00,CLR,,0.00,WeatherDisplay:10.37,2013-07-12 21:51:00,
2013-07-13 07:56:00,47.2,42.6,30.27,ENE,65,0.0,0.0,84,0.00,CLR,,0.00,WeatherDisplay:10.37,2013-07-12 21:56:00,
2013-07-13 08:01:00,47.5,42.9,30.27,ENE,63,0.0,0.0,84,0.00,CLR,,0.00,WeatherDisplay:10.37,2013-07-12 22:01:00,
2013-07-13 08:06:00,47.8,43.2,30.27,NE,55,0.0,0.0,84,0.00,CLR,,0.00,WeatherDisplay:10.37,2013-07-12 22:06:00,
2013-07-13 08:11:00,48.0,43.4,30.28,NE,47,0.0,0.0,84,0.00,CLR,,0.00,WeatherDisplay:10.37,2013-07-12 22:11:00,
2013-07-13 08:16:00,48.4,44.1,30.27,NNE,24,0.0,0.0,85,0.00,CLR,,0.00,WeatherDisplay:10.37,2013-07-12 22:16:00,
2013-07-13 08:21:00,48.7,44.4,30.27,North,350,0.0,0.0,85,0.00,CLR,,0.00,WeatherDisplay:10.37,2013-07-12 22:21:00,
2013-07-13 08:26:00,49.1,44.8,30.27,NNE,13,0.0,0.0,85,0.00,CLR,,0.00,WeatherDisplay:10.37,2013-07-12 22:26:00,
2013-07-13 08:36:00,49.8,45.5,30.27,NE,40,0.0,0.0,85,0.00,CLR,,0.00,WeatherDisplay:10.37,2013-07-12 22:36:00,
2013-07-13 08:41:00,50.4,46.0,30.27,NE,40,0.0,0.0,85,0.00,CLR,,0.00,WeatherDisplay:10.37,2013-07-12 22:41:00,
2013-07-13 08:46:00,50.9,46.5,30.27,NE,35,0.0,0.0,85,0.00,CLR,,0.00,WeatherDisplay:10.37,2013-07-12 22:46:00,
2013-07-13 08:51:00,51.5,47.5,30.27,NE,35,0.0,0.0,86,0.00,CLR,,0.00,WeatherDisplay:10.37,2013-07-12 22:51:00,
2013-07-13 09:02:00,52.6,48.5,30.27,NNE,22,0.0,0.0,86,0.00,CLR,,0.00,WeatherDisplay:10.37,2013-07-12 23:02:00,
2013-07-13 09:11:00,53.6,49.2,30.27,NE,35,0.0,2.0,85,0.00,CLR,,0.00,WeatherDisplay:10.37,2013-07-12 23:11:00,
2013-07-13 09:16:00,54.2,49.8,30.27,NE,47,0.0,2.0,85,0.00,CLR,,0.00,WeatherDisplay:10.37,2013-07-12 23:16:00,
2013-07-13 09:21:00,54.7,50.3,30.27,NNE,33,0.0,0.0,85,0.00,CLR,,0.00,WeatherDisplay:10.37,2013-07-12 23:21:00,
2013-07-13 09:31:00,55.9,51.5,30.27,NNE,22,0.0,0.0,85,0.00,CLR,,0.00,WeatherDisplay:10.37,2013-07-12 23:31:00,
2013-07-13 09:36:00,56.3,51.5,30.27,NE,41,0.0,2.0,84,0.00,CLR,,0.00,WeatherDisplay:10.37,2013-07-12 23:36:00,
2013-07-13 09:41:00,56.8,52.1,30.27,NNE,28,0.0,2.0,84,0.00,CLR,,0.00,WeatherDisplay:10.37,2013-07-12 23:41:00,
2013-07-13 09:46:00,57.4,52.6,30.27,NNE,17,0.0,0.0,84,0.00,CLR,,0.00,WeatherDisplay:10.37,2013-07-12 23:46:00,
2013-07-13 09:56:00,58.3,53.2,30.26,NE,34,0.0,2.0,83,0.00,CLR,,0.00,WeatherDisplay:10.37,2013-07-12 23:56:00,
2013-07-13 10:01:00,58.8,53.7,30.27,NNE,13,0.0,0.0,83,0.00,CLR,,0.00,WeatherDisplay:10.37,2013-07-13 00:01:00,
2013-07-13 10:06:00,59.1,53.6,30.27,North,3,0.0,2.0,82,0.00,CLR,,0.00,WeatherDisplay:10.37,2013-07-13 00:06:00,
2013-07-13 10:11:00,59.2,53.7,30.27,NNE,20,0.0,4.0,82,0.00,CLR,,0.00,WeatherDisplay:10.37,2013-07-13 00:11:00,
2013-07-13 10:16:00,59.5,54.0,30.26,NE,49,0.0,0.0,82,0.00,CLR,,0.00,WeatherDisplay:10.37,2013-07-13 00:16:00,
2013-07-13 10:21:00,59.9,54.4,30.26,SSW,201,1.0,5.0,82,0.00,CLR,,0.00,WeatherDisplay:10.37,2013-07-13 00:21:00,
2013-07-13 10:26:00,60.6,54.7,30.26,SSW,208,0.0,3.0,81,0.00,CLR,,0.00,WeatherDisplay:10.37,2013-07-13 00:26:00,
2013-07-13 10:31:00,61.2,55.3,30.26,SW,222,0.0,0.0,81,0.00,CLR,,0.00,WeatherDisplay:10.37,2013-07-13 00:31:00,
2013-07-13 10:36:00,61.3,55.1,30.26,North,0,0.0,2.0,80,0.00,CLR,,0.00,WeatherDisplay:10.37,2013-07-13 00:36:00,
2013-07-13 10:41:00,61.5,54.9,30.26,North,1,0.0,2.0,79,0.00,CLR,,0.00,WeatherDisplay:10.37,2013-07-13 00:41:00,
2013-07-13 10:51:00,62.7,55.7,30.25,WNW,287,0.0,2.0,78,0.00,CLR,,0.00,WeatherDisplay:10.37,2013-07-13 00:51:00,
2013-07-13 10:57:00,63.3,56.3,30.26,WSW,255,0.0,1.0,78,0.00,CLR,,0.00,WeatherDisplay:10.37,2013-07-13 00:57:00,
2013-07-13 11:01:00,63.8,56.1,30.26,West,260,0.0,4.0,76,0.00,CLR,,0.00,WeatherDisplay:10.37,2013-07-13 01:01:00,
2013-07-13 11:06:00,63.5,55.4,30.25,NW,326,0.0,3.0,75,0.00,CLR,,0.00,WeatherDisplay:10.37,2013-07-13 01:06:00,
2013-07-13 11:11:00,63.0,54.9,30.25,NNE,23,0.0,2.0,75,0.00,CLR,,0.00,WeatherDisplay:10.37,2013-07-13 01:11:00,
2013-07-13 11:21:00,62.4,54.4,30.25,WSW,243,0.0,2.0,75,0.00,CLR,,0.00,WeatherDisplay:10.37,2013-07-13 01:21:00,
2013-07-13 11:36:00,63.7,55.2,30.24,SSW,197,3.0,6.0,74,0.00,CLR,,0.00,WeatherDisplay:10.37,2013-07-13 01:36:00,
2013-07-13 11:42:00,64.0,55.2,30.23,SSW,195,1.0,5.0,73,0.00,CLR,,0.00,WeatherDisplay:10.37,2013-07-13 01:42:00,
2013-07-13 11:46:00,64.2,55.4,30.24,SSW,195,0.0,5.0,73,0.00,CLR,,0.00,WeatherDisplay:10.37,2013-07-13 01:46:00,
2013-07-13 11:51:00,64.6,55.0,30.23,SSW,196,2.0,5.0,71,0.00,CLR,,0.00,WeatherDisplay:10.37,2013-07-13 01:51:00,
2013-07-13 11:56:00,64.8,55.1,30.23,SSW,212,0.0,3.0,71,0.00,CLR,,0.00,WeatherDisplay:10.37,2013-07-13 01:56:00,
2013-07-13 12:01:00,64.9,54.8,30.23,SW,219,1.0,3.0,70,0.00,CLR,,0.00,WeatherDisplay:10.37,2013-07-13 02:01:00,
2013-07-13 12:06:00,64.9,54.9,30.23,SSW,198,0.0,2.0,70,0.00,CLR,,0.00,WeatherDisplay:10.37,2013-07-13 02:06:00,
2013-07-13 12:11:00,64.9,54.9,30.22,South,182,1.0,5.0,70,0.00,CLR,,0.00,WeatherDisplay:10.37,2013-07-13 02:11:00,
2013-07-13 12:17:00,64.9,54.9,30.22,South,183,1.0,5.0,70,0.00,CLR,,0.00,WeatherDisplay:10.37,2013-07-13 02:17:00,
2013-07-13 12:21:00,65.1,54.7,30.22,SSE,154,0.0,2.0,69,0.00,CLR,,0.00,WeatherDisplay:10.37,2013-07-13 02:21:00,
2013-07-13 12:26:00,65.3,54.9,30.22,SE,140,0.0,2.0,69,0.00,CLR,,0.00,WeatherDisplay:10.37,2013-07-13 02:26:00,
2013-07-13 12:32:00,65.2,54.8,30.22,South,180,0.0,2.0,69,0.00,CLR,,0.00,WeatherDisplay:10.37,2013-07-13 02:32:00,
2013-07-13 12:36:00,65.1,54.3,30.22,SSW,203,1.0,4.0,68,0.00,CLR,,0.00,WeatherDisplay:10.37,2013-07-13 02:36:00,
2013-07-13 12:41:00,65.1,54.3,30.22,SSW,193,1.0,3.0,68,0.00,CLR,,0.00,WeatherDisplay:10.37,2013-07-13 02:41:00,
2013-07-13 12:51:00,64.9,54.5,30.22,SSW,206,0.0,6.0,69,0.00,CLR,,0.00,WeatherDisplay:10.37,2013-07-13 02:51:00,
2013-07-13 12:56:00,64.9,54.5,30.22,SW,217,2.0,5.0,69,0.00,CLR,,0.00,WeatherDisplay:10.37,2013-07-13 02:56:00,
2013-07-13 13:06:00,64.8,54.3,30.22,SSW,211,1.0,3.0,69,0.00,CLR,,0.00,WeatherDisplay:10.37,2013-07-13 03:06:00,
2013-07-13 13:11:00,64.6,54.2,30.22,SSW,212,2.0,5.0,69,0.00,CLR,,0.00,WeatherDisplay:10.37,2013-07-13 03:11:00,
2013-07-13 13:16:00,64.5,54.1,30.22,SSW,209,1.0,3.0,69,0.00,CLR,,0.00,WeatherDisplay:10.37,2013-07-13 03:16:00,
2013-07-13 13:22:00,64.2,53.8,30.21,SSW,209,1.0,3.0,69,0.00,CLR,,0.00,WeatherDisplay:10.37,2013-07-13 03:22:00,
2013-07-13 13:31:00,64.0,53.6,30.21,SSW,202,0.0,3.0,69,0.00,CLR,,0.00,WeatherDisplay:10.37,2013-07-13 03:31:00,
2013-07-13 13:36:00,63.6,53.7,30.20,SSW,204,0.0,3.0,70,0.00,CLR,,0.00,WeatherDisplay:10.37,2013-07-13 03:36:00,
2013-07-13 13:41:00,63.5,53.5,30.21,SSW,205,0.0,4.0,70,0.00,CLR,,0.00,WeatherDisplay:10.37,2013-07-13 03:41:00,
2013-07-13 13:46:00,63.3,53.4,30.20,SSW,206,1.0,3.0,70,0.00,CLR,,0.00,WeatherDisplay:10.37,2013-07-13 03:46:00,
2013-07-13 13:51:00,63.1,53.2,30.20,SSW,207,0.0,2.0,70,0.00,CLR,,0.00,WeatherDisplay:10.37,2013-07-13 03:51:00,
2013-07-13 13:56:00,63.0,53.0,30.21,SSW,201,0.0,5.0,70,0.00,CLR,,0.00,WeatherDisplay:10.37,2013-07-13 03:56:00,
2013-07-13 14:01:00,62.9,53.3,30.21,SSW,198,1.0,6.0,71,0.00,CLR,,0.00,WeatherDisplay:10.37,2013-07-13 04:01:00,
2013-07-13 14:06:00,62.7,53.1,30.20,South,189,0.0,5.0,71,0.00,CLR,,0.00,WeatherDisplay:10.37,2013-07-13 04:06:00,
2013-07-13 14:11:00,62.5,53.0,30.20,SSW,203,0.0,4.0,71,0.00,CLR,,0.00,WeatherDisplay:10.37,2013-07-13 04:11:00,
2013-07-13 14:16:00,62.4,53.3,30.20,SW,217,0.0,2.0,72,0.00,CLR,,0.00,WeatherDisplay:10.37,2013-07-13 04:16:00,
2013-07-13 14:21:00,62.4,53.3,30.20,SSW,213,0.0,4.0,72,0.00,CLR,,0.00,WeatherDisplay:10.37,2013-07-13 04:21:00,
2013-07-13 14:26:00,62.4,53.2,30.20,SW,217,0.0,4.0,72,0.00,CLR,,0.00,WeatherDisplay:10.37,2013-07-13 04:26:00,
2013-07-13 14:31:00,62.2,53.1,30.19,SSW,211,1.0,3.0,72,0.00,CLR,,0.00,WeatherDisplay:10.37,2013-07-13 04:31:00,
2013-07-13 14:36:00,62.2,53.1,30.20,SSW,199,0.0,2.0,72,0.00,CLR,,0.00,WeatherDisplay:10.37,2013-07-13 04:36:00,
2013-07-13 14:41:00,62.2,53.1,30.19,SSW,197,0.0,4.0,72,0.00,CLR,,0.00,WeatherDisplay:10.37,2013-07-13 04:41:00,
2013-07-13 14:51:00,62.1,53.3,30.19,SSW,195,1.0,4.0,73,0.00,CLR,,0.00,WeatherDisplay:10.37,2013-07-13 04:51:00,
2013-07-13 14:56:00,61.9,53.2,30.19,SSW,199,0.0,3.0,73,0.00,CLR,,0.00,WeatherDisplay:10.37,2013-07-13 04:56:00,
2013-07-13 15:01:00,62.1,53.4,30.19,SSW,203,0.0,3.0,73,0.00,CLR,,0.00,WeatherDisplay:10.37,2013-07-13 05:01:00,
2013-07-13 15:06:00,62.1,53.3,30.19,SSW,192,0.0,1.0,73,0.00,CLR,,0.00,WeatherDisplay:10.37,2013-07-13 05:06:00,
2013-07-13 15:11:00,62.1,53.3,30.19,South,189,2.0,3.0,73,0.00,CLR,,0.00,WeatherDisplay:10.37,2013-07-13 05:11:00,
2013-07-13 15:16:00,62.2,53.0,30.19,SSW,195,0.0,0.0,72,0.00,CLR,,0.00,WeatherDisplay:10.37,2013-07-13 05:16:00,
2013-07-13 15:21:00,62.0,52.9,30.19,SSW,203,0.0,3.0,72,0.00,CLR,,0.00,WeatherDisplay:10.37,2013-07-13 05:21:00,
2013-07-13 15:26:00,61.9,53.1,30.19,SSW,198,0.0,0.0,73,0.00,CLR,,0.00,WeatherDisplay:10.37,2013-07-13 05:26:00,
2013-07-13 15:31:00,61.9,53.1,30.19,SSW,197,0.0,0.0,73,0.00,CLR,,0.00,WeatherDisplay:10.37,2013-07-13 05:31:00,
2013-07-13 15:36:00,61.8,53.0,30.19,SSW,206,0.0,0.0,73,0.00,CLR,,0.00,WeatherDisplay:10.37,2013-07-13 05:36:00,
2013-07-13 15:41:00,61.7,53.0,30.19,SW,216,0.0,0.0,73,0.00,CLR,,0.00,WeatherDisplay:10.37,2013-07-13 05:41:00,
2013-07-13 15:46:00,61.7,53.0,30.19,SW,219,0.0,0.0,73,0.00,CLR,,0.00,WeatherDisplay:10.37,2013-07-13 05:46:00,
2013-07-13 15:51:00,61.6,53.2,30.19,SSW,200,0.0,0.0,74,0.00,CLR,,0.00,WeatherDisplay:10.37,2013-07-13 05:51:00,
2013-07-13 15:56:00,61.5,53.2,30.18,South,190,0.0,0.0,74,0.00,CLR,,0.00,WeatherDisplay:10.37,2013-07-13 05:56:00,
2013-07-13 16:01:00,61.4,53.0,30.19,South,180,0.0,0.0,74,0.00,CLR,,0.00,WeatherDisplay:10.37,2013-07-13 06:01:00,
2013-07-13 16:06:00,61.3,53.0,30.18,South,191,0.0,0.0,74,0.00,CLR,,0.00,WeatherDisplay:10.37,2013-07-13 06:06:00,
2013-07-13 16:11:00,61.2,52.8,30.18,SSW,212,0.0,0.0,74,0.00,CLR,,0.00,WeatherDisplay:10.37,2013-07-13 06:11:00,
2013-07-13 16:16:00,61.0,52.6,30.18,SW,217,0.0,0.0,74,0.00,CLR,,0.00,WeatherDisplay:10.37,2013-07-13 06:16:00,
2013-07-13 16:21:00,61.0,53.0,30.18,SSW,205,0.0,0.0,75,0.00,CLR,,0.00,WeatherDisplay:10.37,2013-07-13 06:21:00,
2013-07-13 16:26:00,61.0,53.0,30.18,South,189,0.0,0.0,75,0.00,CLR,,0.00,WeatherDisplay:10.37,2013-07-13 06:26:00,
2013-07-13 16:31:00,60.6,52.6,30.18,South,189,0.0,0.0,75,0.00,CLR,,0.00,WeatherDisplay:10.37,2013-07-13 06:31:00,
2013-07-13 16:36:00,60.6,52.6,30.18,SSW,201,0.0,0.0,75,0.00,CLR,,0.00,WeatherDisplay:10.37,2013-07-13 06:36:00,
2013-07-13 16:41:00,60.6,53.0,30.18,SSW,201,0.0,0.0,76,0.00,CLR,,0.00,WeatherDisplay:10.37,2013-07-13 06:41:00,
2013-07-13 16:46:00,60.4,52.8,30.18,SSW,201,0.0,0.0,76,0.00,CLR,,0.00,WeatherDisplay:10.37,2013-07-13 06:46:00,
2013-07-13 16:51:00,60.1,52.5,30.17,SSW,204,0.0,0.0,76,0.00,CLR,,0.00,WeatherDisplay:10.37,2013-07-13 06:51:00,
2013-07-13 16:56:00,60.0,52.4,30.18,SSW,204,0.0,0.0,76,0.00,CLR,,0.00,WeatherDisplay:10.37,2013-07-13 06:56:00,
2013-07-13 17:01:00,59.8,52.2,30.17,SSW,202,0.0,0.0,76,0.00,CLR,,0.00,WeatherDisplay:10.37,2013-07-13 07:01:00,
2013-07-13 17:06:00,59.7,52.5,30.17,SSW,203,0.0,0.0,77,0.00,CLR,,0.00,WeatherDisplay:10.37,2013-07-13 07:06:00,
2013-07-13 17:11:00,59.5,52.3,30.18,SSW,204,0.0,0.0,77,0.00,CLR,,0.00,WeatherDisplay:10.37,2013-07-13 07:11:00,
2013-07-13 17:16:00,59.4,52.1,30.18,SW,217,0.0,0.0,77,0.00,CLR,,0.00,WeatherDisplay:10.37,2013-07-13 07:16:00,
2013-07-13 17:21:00,59.2,52.0,30.18,WSW,237,0.0,0.0,77,0.00,CLR,,0.00,WeatherDisplay:10.37,2013-07-13 07:21:00,
2013-07-13 17:26:00,59.1,51.9,30.18,SW,220,0.0,0.0,77,0.00,CLR,,0.00,WeatherDisplay:10.37,2013-07-13 07:26:00,
2013-07-13 17:31:00,58.9,52.1,30.18,SSW,206,0.0,0.0,78,0.00,CLR,,0.00,WeatherDisplay:10.37,2013-07-13 07:31:00,
2013-07-13 17:36:00,58.8,52.0,30.18,SSW,206,0.0,0.0,78,0.00,CLR,,0.00,WeatherDisplay:10.37,2013-07-13 07:36:00,
2013-07-13 17:41:00,58.8,52.0,30.19,SSW,205,0.0,0.0,78,0.00,CLR,,0.00,WeatherDisplay:10.37,2013-07-13 07:41:00,
2013-07-13 17:46:00,58.8,52.0,30.19,SSW,200,0.0,0.0,78,0.00,CLR,,0.00,WeatherDisplay:10.37,2013-07-13 07:46:00,
2013-07-13 17:51:00,58.7,52.2,30.19,South,189,0.0,0.0,79,0.00,CLR,,0.00,WeatherDisplay:10.37,2013-07-13 07:51:00,
2013-07-13 17:56:00,58.6,52.1,30.19,South,182,0.0,0.0,79,0.00,CLR,,0.00,WeatherDisplay:10.37,2013-07-13 07:56:00,
2013-07-13 18:01:00,58.5,52.0,30.19,South,181,0.0,0.0,79,0.00,CLR,,0.00,WeatherDisplay:10.37,2013-07-13 08:01:00,
2013-07-13 18:06:00,58.3,51.8,30.19,South,181,0.0,0.0,79,0.00,CLR,,0.00,WeatherDisplay:10.37,2013-07-13 08:06:00,
2013-07-13 18:11:00,58.2,51.7,30.19,South,181,0.0,0.0,79,0.00,CLR,,0.00,WeatherDisplay:10.37,2013-07-13 08:11:00,